Location: Unspecified
(64.9000°N, 0.0000°E)
Time: 03:27:25
(UTC+00:00)

Transit 2A Rocket - Pass Details

Date: 25 June 2019
Orbit: 593 x 910 km, 66.7° (Epoch: 12 October)

Event Time Altitude Azimuth Distance (km) Brightness Sun altitude
Rises 10:07:12 0° 203° (SSW) 3,525 8.7 44.5°
Reaches altitude 10° 10:09:53 10° 197° (SSW) 2,569 8.2 44.6°
Maximum altitude 10:15:24 40° 130° (SE) 1,265 8.4 45.0°
Drops below altitude 10° 10:20:38 10° 63° (ENE) 2,438 7.8 45.3°
Sets 10:23:07 0° 56° (NE) 3,325 8.3 45.5°
